Time,TemperatureF,DewpointF,PressureIn,WindDirection,WindDirectionDegrees,WindSpeedMPH,WindSpeedGustMPH,Humidity,HourlyPrecipIn,Conditions,Clouds,dailyrainin,SolarRadiationWatts/m^2,SoftwareType,DateUTC
2013-10-12 00:03:00,58.0,58.0,-100.00,ESE,104,1.0,2.0,99,0.00,,,0.01,0.000000,,2013-10-12 05:03:00,
2013-10-12 00:13:00,58.0,58.0,-100.00,ESE,104,1.0,2.0,99,0.00,,,0.01,0.000000,,2013-10-12 05:13:00,
2013-10-12 00:23:00,58.0,58.0,-100.00,ESE,104,1.0,2.0,99,0.00,,,0.01,0.000000,,2013-10-12 05:23:00,
2013-10-12 00:52:00,57.0,57.0,-100.00,East,92,2.0,3.0,100,0.00,,,-99.99,0.000000,,2013-10-12 05:52:00,
2013-10-12 01:02:00,57.0,57.0,-100.00,East,92,2.0,3.0,100,0.00,,,-99.99,0.000000,,2013-10-12 06:02:00,
2013-10-12 01:12:00,57.0,57.0,-100.00,East,92,2.0,3.0,100,0.00,,,-99.99,0.000000,,2013-10-12 06:12:00,
2013-10-12 01:22:00,57.0,57.0,-100.00,East,92,2.0,3.0,100,0.00,,,-99.99,0.000000,,2013-10-12 06:22:00,
2013-10-12 01:52:00,57.0,57.0,-100.00,East,90,0.0,3.0,100,0.00,,,0.01,0.000000,,2013-10-12 06:52:00,
2013-10-12 02:03:00,57.0,57.0,-100.00,East,90,0.0,3.0,100,0.00,,,0.01,0.000000,,2013-10-12 07:03:00,
2013-10-12 02:12:00,57.0,57.0,-100.00,East,90,0.0,3.0,100,0.00,,,0.01,0.000000,,2013-10-12 07:12:00,
2013-10-12 02:22:00,57.0,57.0,-100.00,East,90,0.0,3.0,100,0.00,,,0.01,0.000000,,2013-10-12 07:22:00,
2013-10-12 02:52:00,56.0,56.0,-100.00,East,83,2.0,3.0,100,0.00,,,0.01,0.000000,,2013-10-12 07:52:00,
2013-10-12 03:02:00,56.0,56.0,-100.00,East,83,2.0,3.0,100,0.00,,,0.01,0.000000,,2013-10-12 08:02:00,
2013-10-12 03:12:00,56.0,56.0,-100.00,East,83,2.0,3.0,100,0.00,,,0.01,0.000000,,2013-10-12 08:12:00,
2013-10-12 03:22:00,56.0,56.0,-100.00,East,83,2.0,3.0,100,0.00,,,0.01,0.000000,,2013-10-12 08:22:00,
2013-10-12 03:52:00,56.0,56.0,-100.00,East,82,2.0,4.0,100,0.00,,,0.01,0.000000,,2013-10-12 08:52:00,
2013-10-12 04:02:00,56.0,56.0,-100.00,East,82,2.0,4.0,100,0.00,,,0.01,0.000000,,2013-10-12 09:02:00,
2013-10-12 04:11:00,56.0,56.0,-100.00,East,82,2.0,4.0,100,0.00,,,0.01,0.000000,,2013-10-12 09:11:00,
2013-10-12 04:21:00,56.0,56.0,-100.00,East,82,2.0,4.0,100,0.00,,,0.01,0.000000,,2013-10-12 09:21:00,
2013-10-12 04:54:00,55.0,55.0,-100.00,East,86,2.0,3.0,100,0.00,,,0.01,0.000000,,2013-10-12 09:54:00,
2013-10-12 05:03:00,55.0,55.0,-100.00,East,86,2.0,3.0,100,0.00,,,0.01,0.000000,,2013-10-12 10:03:00,
2013-10-12 05:12:00,55.0,55.0,-100.00,East,86,2.0,3.0,100,0.00,,,0.01,0.000000,,2013-10-12 10:12:00,
2013-10-12 05:23:00,55.0,55.0,-100.00,East,86,2.0,3.0,100,0.00,,,0.01,0.000000,,2013-10-12 10:23:00,
2013-10-12 05:52:00,55.0,55.0,-100.00,ENE,78,2.0,3.0,100,0.00,,,0.00,0.000000,,2013-10-12 10:52:00,
2013-10-12 06:02:00,55.0,55.0,-100.00,ENE,78,2.0,3.0,100,0.00,,,0.00,0.000000,,2013-10-12 11:02:00,
2013-10-12 06:12:00,55.0,55.0,-100.00,ENE,78,2.0,3.0,100,0.00,,,0.00,0.000000,,2013-10-12 11:12:00,
2013-10-12 06:22:00,55.0,55.0,-100.00,ENE,78,2.0,3.0,100,0.00,,,0.00,0.000000,,2013-10-12 11:22:00,
2013-10-12 06:52:00,55.0,55.0,-100.00,East,81,3.0,3.0,100,0.00,,,0.00,0.000000,,2013-10-12 11:52:00,
2013-10-12 07:01:00,55.0,55.0,-100.00,East,81,3.0,3.0,100,0.00,,,0.00,0.000000,,2013-10-12 12:01:00,
2013-10-12 07:11:00,55.0,55.0,-100.00,East,81,3.0,3.0,100,0.00,,,0.00,0.000000,,2013-10-12 12:11:00,
2013-10-12 07:22:00,55.0,55.0,-100.00,East,81,3.0,3.0,100,0.00,,,0.00,0.000000,,2013-10-12 12:22:00,
2013-10-12 07:52:00,54.0,54.0,-100.00,ENE,69,3.0,3.0,100,0.00,,,0.00,7.000000,,2013-10-12 12:52:00,
2013-10-12 08:02:00,54.0,54.0,-100.00,ENE,69,3.0,3.0,100,0.00,,,0.00,7.000000,,2013-10-12 13:02:00,
2013-10-12 08:11:00,54.0,54.0,-100.00,ENE,69,3.0,3.0,100,0.00,,,0.00,7.000000,,2013-10-12 13:11:00,
2013-10-12 08:21:00,54.0,54.0,-100.00,ENE,69,3.0,3.0,100,0.00,,,0.00,7.000000,,2013-10-12 13:21:00,
2013-10-12 08:52:00,60.0,59.0,-100.00,ENE,73,3.0,4.0,98,0.00,,,0.00,136.000000,,2013-10-12 13:52:00,
2013-10-12 09:02:00,60.0,59.0,-100.00,ENE,73,3.0,4.0,98,0.00,,,0.00,136.000000,,2013-10-12 14:02:00,
2013-10-12 09:12:00,60.0,59.0,-100.00,ENE,73,3.0,4.0,98,0.00,,,0.00,136.000000,,2013-10-12 14:12:00,
2013-10-12 09:21:00,60.0,59.0,-100.00,ENE,73,3.0,4.0,98,0.00,,,0.00,136.000000,,2013-10-12 14:21:00,
2013-10-12 10:54:00,74.0,62.0,-100.00,South,176,3.0,8.0,67,0.00,,,0.00,373.000000,,2013-10-12 15:54:00,
2013-10-12 11:03:00,74.0,62.0,-100.00,South,176,3.0,8.0,67,0.00,,,0.00,373.000000,,2013-10-12 16:03:00,
2013-10-12 11:13:00,74.0,62.0,-100.00,South,176,3.0,8.0,67,0.00,,,0.00,373.000000,,2013-10-12 16:13:00,
2013-10-12 11:23:00,74.0,62.0,-100.00,South,176,3.0,8.0,67,0.00,,,0.00,373.000000,,2013-10-12 16:23:00,
2013-10-12 11:53:00,78.0,62.0,-100.00,South,179,4.0,9.0,59,0.00,,,0.00,658.000000,,2013-10-12 16:53:00,
2013-10-12 12:03:00,78.0,62.0,-100.00,South,179,4.0,9.0,59,0.00,,,0.00,658.000000,,2013-10-12 17:03:00,
2013-10-12 12:13:00,78.0,62.0,-100.00,South,179,4.0,9.0,59,0.00,,,0.00,658.000000,,2013-10-12 17:13:00,
2013-10-12 12:23:00,78.0,62.0,-100.00,South,179,4.0,9.0,59,0.00,,,0.00,658.000000,,2013-10-12 17:23:00,
2013-10-12 12:53:00,76.0,65.0,-100.00,WSW,242,3.0,7.0,68,0.00,,,-99.99,326.000000,,2013-10-12 17:53:00,
2013-10-12 13:02:00,76.0,65.0,-100.00,WSW,242,3.0,7.0,68,0.00,,,-99.99,326.000000,,2013-10-12 18:02:00,
2013-10-12 13:12:00,76.0,65.0,-100.00,WSW,242,3.0,7.0,68,0.00,,,-99.99,326.000000,,2013-10-12 18:12:00,
2013-10-12 13:22:00,76.0,65.0,-100.00,WSW,242,3.0,7.0,68,0.00,,,-99.99,326.000000,,2013-10-12 18:22:00,
2013-10-12 13:52:00,76.0,64.0,-100.00,SW,222,3.0,9.0,66,0.00,,,0.00,360.000000,,2013-10-12 18:52:00,
2013-10-12 14:01:00,76.0,64.0,-100.00,SW,222,3.0,9.0,66,0.00,,,0.00,360.000000,,2013-10-12 19:01:00,
2013-10-12 14:11:00,76.0,64.0,-100.00,SW,222,3.0,9.0,66,0.00,,,0.00,360.000000,,2013-10-12 19:11:00,
2013-10-12 14:22:00,76.0,64.0,-100.00,SW,222,3.0,9.0,66,0.00,,,0.00,360.000000,,2013-10-12 19:22:00,
2013-10-12 14:52:00,76.0,64.0,-100.00,SSW,192,4.0,7.0,66,0.00,,,0.00,348.000000,,2013-10-12 19:52:00,
2013-10-12 15:03:00,76.0,64.0,-100.00,SSW,192,4.0,7.0,66,0.00,,,0.00,348.000000,,2013-10-12 20:03:00,
2013-10-12 15:12:00,76.0,64.0,-100.00,SSW,192,4.0,7.0,66,0.00,,,0.00,348.000000,,2013-10-12 20:12:00,
2013-10-12 15:22:00,76.0,64.0,-100.00,SSW,192,4.0,7.0,66,0.00,,,0.00,348.000000,,2013-10-12 20:22:00,
2013-10-12 15:52:00,74.0,66.0,-100.00,SE,127,3.0,7.0,75,0.00,,,0.00,203.000000,,2013-10-12 20:52:00,
2013-10-12 16:02:00,74.0,66.0,-100.00,SE,127,3.0,7.0,75,0.00,,,0.00,203.000000,,2013-10-12 21:02:00,
2013-10-12 16:11:00,74.0,66.0,-100.00,SE,127,3.0,7.0,75,0.00,,,0.00,203.000000,,2013-10-12 21:11:00,
2013-10-12 16:22:00,74.0,66.0,-100.00,SE,127,3.0,7.0,75,0.00,,,0.00,203.000000,,2013-10-12 21:22:00,
2013-10-12 16:54:00,76.0,65.0,-100.00,SE,141,2.0,7.0,69,0.00,,,0.00,248.000000,,2013-10-12 21:54:00,
2013-10-12 17:04:00,76.0,65.0,-100.00,SE,141,2.0,7.0,69,0.00,,,0.00,248.000000,,2013-10-12 22:04:00,
2013-10-12 17:13:00,76.0,65.0,-100.00,SE,141,2.0,7.0,69,0.00,,,0.00,248.000000,,2013-10-12 22:13:00,
2013-10-12 17:24:00,76.0,65.0,-100.00,SE,141,2.0,7.0,69,0.00,,,0.00,248.000000,,2013-10-12 22:24:00,
2013-10-12 17:54:00,76.0,67.0,-100.00,SSW,212,1.0,5.0,74,0.00,,,0.00,187.000000,,2013-10-12 22:54:00,
2013-10-12 18:02:00,76.0,67.0,-100.00,SSW,212,1.0,5.0,74,0.00,,,0.00,187.000000,,2013-10-12 23:02:00,
2013-10-12 18:12:00,76.0,67.0,-100.00,SSW,212,1.0,5.0,74,0.00,,,0.00,187.000000,,2013-10-12 23:12:00,
2013-10-12 18:22:00,76.0,67.0,-100.00,SSW,212,1.0,5.0,74,0.00,,,0.00,187.000000,,2013-10-12 23:22:00,
2013-10-12 18:52:00,69.0,67.0,-100.00,NNW,341,1.0,5.0,92,0.00,,,0.00,38.000000,,2013-10-12 23:52:00,
2013-10-12 19:01:00,69.0,67.0,-100.00,NNW,341,1.0,5.0,92,0.00,,,0.00,38.000000,,2013-10-13 00:01:00,
2013-10-12 19:12:00,69.0,67.0,-100.00,NNW,341,1.0,5.0,92,0.00,,,0.00,38.000000,,2013-10-13 00:12:00,
2013-10-12 19:22:00,69.0,67.0,-100.00,NNW,341,1.0,5.0,92,0.00,,,0.00,38.000000,,2013-10-13 00:22:00,
2013-10-12 19:52:00,66.0,65.0,-100.00,WNW,293,1.0,3.0,98,0.00,,,0.00,0.000000,,2013-10-13 00:52:00,
2013-10-12 20:01:00,66.0,65.0,-100.00,WNW,293,1.0,3.0,98,0.00,,,0.00,0.000000,,2013-10-13 01:01:00,
2013-10-12 20:12:00,66.0,65.0,-100.00,WNW,293,1.0,3.0,98,0.00,,,0.00,0.000000,,2013-10-13 01:12:00,
2013-10-12 20:22:00,66.0,65.0,-100.00,WNW,293,1.0,3.0,98,0.00,,,0.00,0.000000,,2013-10-13 01:22:00,
2013-10-12 20:52:00,65.0,65.0,-100.00,WSW,251,0.0,2.0,99,0.00,,,0.00,0.000000,,2013-10-13 01:52:00,
2013-10-12 21:02:00,65.0,65.0,-100.00,WSW,251,0.0,2.0,99,0.00,,,0.00,0.000000,,2013-10-13 02:02:00,
2013-10-12 21:12:00,65.0,65.0,-100.00,WSW,251,0.0,2.0,99,0.00,,,0.00,0.000000,,2013-10-13 02:12:00,
2013-10-12 21:22:00,65.0,65.0,-100.00,WSW,251,0.0,2.0,99,0.00,,,0.00,0.000000,,2013-10-13 02:22:00,
2013-10-12 21:52:00,64.0,64.0,-100.00,WNW,285,0.0,0.0,99,0.00,,,0.00,0.000000,,2013-10-13 02:52:00,
2013-10-12 22:02:00,64.0,64.0,-100.00,WNW,285,0.0,0.0,99,0.00,,,0.00,0.000000,,2013-10-13 03:02:00,
2013-10-12 22:12:00,64.0,64.0,-100.00,WNW,285,0.0,0.0,99,0.00,,,0.00,0.000000,,2013-10-13 03:12:00,
2013-10-12 22:22:00,64.0,64.0,-100.00,WNW,285,0.0,0.0,99,0.00,,,0.00,0.000000,,2013-10-13 03:22:00,
2013-10-12 22:54:00,63.0,63.0,-100.00,WSW,256,0.0,3.0,100,0.00,,,0.00,0.000000,,2013-10-13 03:54:00,
2013-10-12 23:02:00,-999.0,-99.9,-100.00,WSW,256,0.0,3.0,-999,-99.99,,,-99.99,0.000000,,2013-10-13 04:02:00,
2013-10-12 23:14:00,63.0,63.0,-100.00,WSW,256,0.0,3.0,100,0.00,,,0.00,0.000000,,2013-10-13 04:14:00,
2013-10-12 23:23:00,63.0,63.0,-100.00,WSW,256,0.0,3.0,100,0.00,,,0.00,0.000000,,2013-10-13 04:23:00,
2013-10-12 23:54:00,64.0,64.0,-100.00,North,358,1.0,3.0,100,0.00,,,0.00,0.000000,,2013-10-13 04:54:00,